FW2969 Weather Reports


time (UTC)temp
C
wind
direction
speed
KPH
gust
KPH
rain 1hr
cm
rain 24hr
cm
rain mn
cm
humidity
%
barometer
mb
20260504214550 8 159 4.8 19.3 0.03 3.73 0.00 98 1014.1
20260504213048 7 144 3.2 9.7 0.05 3.73 0.00 98 1014.2
20260504211551 7 182 6.4 22.5 0.05 3.73 0.00 98 1014.5
20260504204531 7 236 6.4 20.9 0.10 3.71 3.71 98 1014.8
20260504203034 7 197 8.0 25.7 0.13 3.68 3.68 98 1015.1
20260504201530 7 245 12.9 25.7 0.20 3.68 3.68 98 1014.9
20260504200029 7 223 3.2 12.9 0.13 3.61 3.61 97 1015.0
20260504194542 7 190 9.7 27.4 0.15 3.63 3.61 98 1015.1
20260504193030 7 230 3.2 12.9 0.08 3.56 3.53 97 1015.1
20260504191532 7 80 4.8 12.9 0.03 3.51 3.48 97 1015.0
20260504190031 7 204 1.6 12.9 0.03 3.51 3.48 98 1015.2
20260504184533 7 226 8.0 19.3 0.00 3.61 3.45 97 1015.2
20260504183024 7 196 6.4 16.1 0.00 3.61 3.45 97 1015.1
20260504181523 8 328 9.7 29.0 0.00 3.61 3.45 98 1015.0
20260504180022 8 219 6.4 25.7 0.13 3.61 3.45 98 1014.9
20260504174521 8 158 1.6 14.5 0.20 4.14 3.45 98 1014.8
20260504173021 7 223 12.9 24.1 0.20 4.14 3.45 97 1014.7
20260504171518 8 266 8.0 30.6 0.20 4.14 3.45 97 1014.6
20260504120114 8 223 12.9 27.4 0.08 3.05 1.98 97 1013.2
20260504081533 7 163 6.4 22.5 0.15 3.00 1.45 96 1014.2
20260504050012 8 189 4.8 19.3 0.00 1.60 0.08 92 1011.7
20260504044510 8 178 4.8 19.3 0.00 1.60 0.08 94 1011.8
20260504043010 7 161 3.2 19.3 0.00 1.60 0.08 95 1011.8
20260504041508 7 179 6.4 22.5 0.00 1.60 0.08 95 1012.1
20260504040008 7 169 6.4 19.3 0.00 1.60 0.08 96 1011.9
20260504034504 7 181 4.8 14.5 0.00 1.60 0.08 96 1011.8
20260504033002 7 186 3.2 16.1 0.00 1.60 0.08 97 1011.8
20260504031629 6 151 3.2 14.5 0.00 1.60 0.08 96 1011.6
20260504030057 6 175 3.2 8.0 0.00 1.60 0.08 97 1011.5
20260504024556 6 94 0.0 6.4 0.00 1.60 0.08 96 1011.5
20260504023055 6 172 0.0 8.0 0.00 1.60 0.08 96 1011.5
20260504021605 6 155 0.0 9.7 0.00 1.60 0.08 96 1011.6
20260504020051 7 156 1.6 8.0 0.00 1.60 0.08 96 1011.6
20260504014549 7 223 3.2 12.9 0.00 1.60 0.08 97 1011.4
20260504013054 7 119 3.2 8.0 0.00 1.60 0.08 97 1011.4
20260504011550 7 222 1.6 8.0 0.00 1.60 0.08 97 1011.4
20260504010046 7 217 0.0 9.7 0.00 1.60 0.08 97 1011.5
20260504004545 7 201 3.2 8.0 0.00 1.60 0.08 97 1011.5
20260504003047 7 201 0.0 9.7 0.00 1.60 0.08 97 1011.4
20260504001556 7 195 3.2 16.1 0.00 1.60 0.08 97 1011.6
20260504000040 7 192 1.6 12.9 0.00 1.60 0.08 97 1011.5
20260503234538 7 178 3.2 14.5 0.00 1.60 0.08 97 1011.6
20260503233038 7 209 4.8 14.5 0.05 1.60 0.08 97 1011.6
20260503231546 8 205 4.8 14.5 0.08 1.60 0.08 97 1011.7
20260503230041 8 261 0.0 12.9 0.08 1.60 0.08 97 1011.7
20260503224535 8 222 4.8 16.1 0.08 1.60 0.08 97 1011.7
20260503223038 8 186 3.2 11.3 0.03 1.55 0.03 97 1011.6
20260503221535 7 152 1.6 11.3 0.00 1.52 0.00 97 1011.5
20260503220038 7 186 1.6 9.7 0.00 1.52 0.00 97 1011.6